Location: Huntsville
(41.2590°N, 111.7678°W)
Time: 07:36:10
(UTC+00:00)

Envisat - Pass Details

Date: 10 December 2021
Orbit: 764 x 766 km, 98.2° (Epoch: 18 January)

Event Time Altitude Azimuth Distance (km) Brightness Sun altitude
Rises 11:50:36 0° 21° (NNE) 3,240 6.4 -31.4°
Reaches altitude 10° 11:53:04 10° 29° (NNE) 2,309 5.7 -30.9°
Maximum altitude 11:57:48 38° 97° (E) 1,153 4.3 -30.0°
Drops below altitude 10° 12:02:29 10° 166° (SSE) 2,293 5.7 -29.1°
Sets 12:04:56 0° 174° (S) 3,214 6.4 -28.7°
